Simultaneous Nadir Overpasses (SNOs) Predictions

Prediction of SNOs between NOAA-21 and NOAA-19 Satellite Orbit:

Table of predicted SNOs for the next 14.0 days since TLE Epoch: 8/5/2023
Index Date (NOAA-21) Time (NOAA-21) Lat,Lon (NOAA-21) SZA (NOAA-21 ) Date (NOAA-19) Time (NOAA-19) Lat,Lon (NOAA-19) SZA (NOAA-19 ) Distance(km) Time Diff (sec)
1 08/05/2023 03:21:44 74.47, 117.18 57.84 08/05/2023 03:20:35 74.48, 115.27 58.03 57.04 69
2 08/05/2023 04:12:35 -74.80, -76.40 121.77 08/05/2023 04:11:28 -74.82, -76.52 121.72 3.66 67
3 08/05/2023 05:03:22 74.86, 90.74 58.32 08/05/2023 05:02:26 74.86, 90.86 58.32 3.63 56
4 08/05/2023 05:54:06 -74.86,-101.94 121.68 08/05/2023 05:53:26 -74.86,-101.88 121.67 1.67 40
5 08/05/2023 06:44:52 74.87, 65.34 58.35 08/05/2023 06:44:25 74.85, 65.36 58.34 2.11 27
6 08/05/2023 07:35:36 -74.87,-127.34 121.65 08/05/2023 07:35:25 -74.86,-127.38 121.66 1.66 11
7 08/05/2023 08:26:22 74.88, 39.94 58.38 08/05/2023 08:26:23 74.90, 39.99 58.39 2.43 1
8 08/05/2023 09:17:06 -74.88,-152.73 121.63 08/05/2023 09:17:23 -74.90,-152.74 121.60 2.87 17
9 08/05/2023 10:07:52 74.89, 14.54 58.40 08/05/2023 10:08:22 74.90, 14.49 58.40 1.47 30
10 08/05/2023 10:58:36 -74.89,-178.13 121.60 08/05/2023 10:59:22 -74.90,-178.24 121.59 3.52 46
11 08/05/2023 11:49:23 74.95, -11.00 58.49 08/05/2023 11:50:20 74.94, -10.87 58.45 3.74 57
12 08/05/2023 12:40:07 -74.94, 156.33 121.51 08/05/2023 12:41:20 -74.94, 156.40 121.54 1.90 73
13 08/05/2023 13:31:03 75.43, -37.80 59.08 08/05/2023 13:32:10 75.35, -35.07 58.78 77.00 67



Historial Predications of SNOs between NOAA-21 and NOAA-19
